FRS28 EDLS-EDXI

Flight info

Callsign FRS28
Flight time 0h 41m
Altitude 2000
Route DIRECT
Aircraft PA44/L-V/N

Departure

Time 2026-04-28 13:42
Airport Stadtlohn-Vreden Airfield (EDLS)

Arrival

Time 2026-04-28 14:23
Airport Nienburg-Holzbalge Airfield (EDXI)
Time Latitude Longitude Altitude Speed Heading
2026-04-28 13:31 51.99464 6.85005 160 ft 0 kts 290°
2026-04-28 13:32 51.99477 6.84937 160 ft 11 kts 285°
2026-04-28 13:33 51.99501 6.84794 160 ft 13 kts 286°
2026-04-28 13:33 51.99505 6.84773 160 ft 0 kts 285°
2026-04-28 13:33 51.99518 6.84706 160 ft 12 kts 286°
2026-04-28 13:34 51.99542 6.84554 160 ft 14 kts 286°
2026-04-28 13:34 51.99560 6.84457 160 ft 0 kts 287°
2026-04-28 13:34 51.99563 6.84448 160 ft 5 kts 304°
2026-04-28 13:34 51.99597 6.84454 160 ft 1 kts
2026-04-28 13:35 51.99598 6.84437 160 ft 6 kts 248°
2026-04-28 13:35 51.99600 6.84403 160 ft 0 kts 290°
2026-04-28 13:35 51.99629 6.84258 160 ft 34 kts 284°
2026-04-28 13:35 51.99641 6.83808 160 ft 60 kts 262°
2026-04-28 13:37 51.99599 6.84754 160 ft 0 kts 197°
2026-04-28 13:41 51.99577 6.84776 160 ft 8 kts 156°
2026-04-28 13:41 51.99496 6.84749 160 ft 15 kts 197°
2026-04-28 13:41 51.99480 6.84614 161 ft 36 kts 284°
2026-04-28 13:42 51.99588 6.83997 263 ft 67 kts 287°
2026-04-28 13:42 51.99792 6.83272 517 ft 74 kts 308°
2026-04-28 13:42 52.00279 6.83025 813 ft 79 kts
2026-04-28 13:42 52.00729 6.83481 1141 ft 78 kts 53°
2026-04-28 13:43 52.00929 6.84298 1482 ft 73 kts 79°
2026-04-28 13:43 52.01137 6.85157 1689 ft 92 kts 56°
2026-04-28 13:43 52.01482 6.86196 1828 ft 112 kts 65°
2026-04-28 13:43 52.01848 6.87397 1992 ft 123 kts 65°
2026-04-28 13:44 52.02257 6.88735 2011 ft 142 kts 64°
2026-04-28 13:44 52.02720 6.90223 2009 ft 151 kts 63°
2026-04-28 13:44 52.03197 6.91750 2001 ft 157 kts 64°
2026-04-28 13:44 52.03682 6.93346 2008 ft 158 kts 64°
2026-04-28 13:45 52.04173 6.94922 1995 ft 152 kts 63°
2026-04-28 13:45 52.04640 6.96408 2008 ft 148 kts 64°
2026-04-28 13:45 52.05106 6.97910 1995 ft 147 kts 63°
2026-04-28 13:45 52.05557 6.99388 1993 ft 146 kts 64°
2026-04-28 13:46 52.06016 7.00888 1994 ft 150 kts 64°
2026-04-28 13:46 52.06475 7.02389 2008 ft 150 kts 64°
2026-04-28 13:46 52.06942 7.03937 1999 ft 152 kts 64°
2026-04-28 13:46 52.07411 7.05485 2012 ft 153 kts 64°
2026-04-28 13:47 52.07883 7.07031 1994 ft 153 kts 64°
2026-04-28 13:47 52.08363 7.08579 1997 ft 153 kts 64°
2026-04-28 13:47 52.08830 7.10114 2001 ft 153 kts 64°
2026-04-28 13:47 52.09307 7.11693 2007 ft 156 kts 64°
2026-04-28 13:48 52.09792 7.13278 1997 ft 156 kts 64°
2026-04-28 13:48 52.10267 7.14834 1997 ft 156 kts 64°
2026-04-28 13:48 52.10745 7.16401 2007 ft 153 kts 65°
2026-04-28 13:48 52.11220 7.17967 1996 ft 153 kts 64°
2026-04-28 13:49 52.11691 7.19515 1998 ft 154 kts 63°
2026-04-28 13:49 52.12170 7.21081 2005 ft 155 kts 64°
2026-04-28 13:49 52.12655 7.22640 1994 ft 155 kts 63°
2026-04-28 13:49 52.13143 7.24210 1993 ft 155 kts 64°
2026-04-28 13:50 52.13621 7.25754 1997 ft 154 kts 64°
2026-04-28 13:50 52.14097 7.27325 1992 ft 154 kts 64°
2026-04-28 13:50 52.14583 7.28868 1993 ft 152 kts 63°
2026-04-28 13:50 52.15061 7.30432 1992 ft 153 kts 64°
2026-04-28 13:51 52.15532 7.31982 2004 ft 158 kts 64°
2026-04-28 13:51 52.16018 7.33591 1992 ft 157 kts 64°
2026-04-28 13:51 52.16502 7.35180 1995 ft 156 kts 63°
2026-04-28 13:51 52.16997 7.36751 1995 ft 155 kts 63°
2026-04-28 13:52 52.17481 7.38310 1994 ft 154 kts 63°
2026-04-28 13:52 52.17964 7.39844 2001 ft 155 kts 63°
2026-04-28 13:52 52.18459 7.41412 1993 ft 156 kts 63°
2026-04-28 13:52 52.18950 7.42971 1994 ft 153 kts 63°
2026-04-28 13:53 52.19439 7.44520 1998 ft 153 kts 63°
2026-04-28 13:53 52.19924 7.46067 2006 ft 155 kts 64°
2026-04-28 13:53 52.20410 7.47641 2004 ft 155 kts 63°
2026-04-28 13:53 52.20897 7.49191 2002 ft 156 kts 63°
2026-04-28 13:54 52.21390 7.50764 1998 ft 154 kts 63°
2026-04-28 13:54 52.21877 7.52318 1991 ft 153 kts 63°
2026-04-28 13:54 52.22361 7.53864 1991 ft 152 kts 63°
2026-04-28 13:54 52.22839 7.55401 1990 ft 155 kts 63°
2026-04-28 13:55 52.23326 7.56977 2003 ft 156 kts 64°
2026-04-28 13:55 52.23822 7.58559 1993 ft 155 kts 63°
2026-04-28 13:55 52.24311 7.60125 1996 ft 156 kts 64°
2026-04-28 13:55 52.24805 7.61709 1996 ft 155 kts 63°
2026-04-28 13:56 52.25289 7.63246 1999 ft 154 kts 63°
2026-04-28 13:56 52.25781 7.64829 1997 ft 156 kts 63°
2026-04-28 13:56 52.26274 7.66412 1997 ft 154 kts 63°
2026-04-28 13:56 52.26755 7.67954 1995 ft 153 kts 63°
2026-04-28 13:57 52.27238 7.69502 1995 ft 152 kts 63°
2026-04-28 13:57 52.27717 7.71037 2004 ft 155 kts 63°
2026-04-28 13:57 52.28208 7.72630 1995 ft 156 kts 63°
2026-04-28 13:57 52.28696 7.74191 2007 ft 157 kts 63°
2026-04-28 13:58 52.29187 7.75780 1996 ft 155 kts 63°
2026-04-28 13:58 52.29669 7.77332 1998 ft 154 kts 63°
2026-04-28 13:58 52.30157 7.78907 1996 ft 155 kts 63°
2026-04-28 13:58 52.30645 7.80479 2010 ft 154 kts 63°
2026-04-28 13:59 52.31135 7.82056 1997 ft 154 kts 63°
2026-04-28 13:59 52.31613 7.83596 2008 ft 155 kts 63°
2026-04-28 13:59 52.32104 7.85163 1995 ft 154 kts 63°
2026-04-28 13:59 52.32588 7.86717 2002 ft 154 kts 64°
2026-04-28 14:00 52.33065 7.88286 1995 ft 155 kts 63°
2026-04-28 14:00 52.33555 7.89853 1995 ft 153 kts 63°
2026-04-28 14:00 52.34041 7.91412 1995 ft 153 kts 63°
2026-04-28 14:00 52.34519 7.92948 1996 ft 153 kts 64°
2026-04-28 14:01 52.35001 7.94508 1995 ft 153 kts 63°
2026-04-28 14:01 52.35484 7.96064 1999 ft 154 kts 63°
2026-04-28 14:01 52.35967 7.97617 2003 ft 156 kts 64°
2026-04-28 14:01 52.36458 7.99200 1995 ft 155 kts 63°
2026-04-28 14:02 52.36941 8.00768 1995 ft 154 kts 64°
2026-04-28 14:02 52.37424 8.02334 2004 ft 154 kts 63°
2026-04-28 14:02 52.37904 8.03887 1996 ft 153 kts 63°
2026-04-28 14:02 52.38383 8.05451 2001 ft 154 kts 64°
2026-04-28 14:03 52.38868 8.07042 2010 ft 157 kts 65°
2026-04-28 14:03 52.39344 8.08625 1995 ft 154 kts 63°
2026-04-28 14:03 52.39836 8.10192 1996 ft 154 kts 64°
2026-04-28 14:03 52.40315 8.11739 1996 ft 154 kts 64°
2026-04-28 14:04 52.40798 8.13297 1995 ft 153 kts 63°
2026-04-28 14:04 52.41281 8.14860 1995 ft 155 kts 63°
2026-04-28 14:04 52.41771 8.16438 1996 ft 156 kts 63°
2026-04-28 14:04 52.42265 8.18039 1998 ft 158 kts 63°
2026-04-28 14:05 52.42743 8.19621 1997 ft 155 kts 64°
2026-04-28 14:05 52.43224 8.21228 2000 ft 157 kts 63°
2026-04-28 14:05 52.43712 8.22835 1996 ft 157 kts 64°
2026-04-28 14:05 52.44192 8.24432 2010 ft 156 kts 65°
2026-04-28 14:06 52.44670 8.26052 1993 ft 158 kts 64°
2026-04-28 14:06 52.45147 8.27632 1999 ft 155 kts 65°
2026-04-28 14:06 52.45623 8.29234 1993 ft 155 kts 63°
2026-04-28 14:06 52.46108 8.30806 1991 ft 153 kts 64°
2026-04-28 14:07 52.46568 8.32372 2003 ft 151 kts 65°
2026-04-28 14:07 52.47033 8.33922 1990 ft 152 kts 64°
2026-04-28 14:07 52.47495 8.35454 1991 ft 148 kts 64°
2026-04-28 14:07 52.47946 8.36982 1997 ft 149 kts 64°
2026-04-28 14:08 52.48406 8.38524 2000 ft 151 kts 64°
2026-04-28 14:08 52.48872 8.40074 1991 ft 150 kts 64°
2026-04-28 14:08 52.49324 8.41596 1991 ft 150 kts 64°
2026-04-28 14:08 52.49626 8.42625 2000 ft 151 kts 65°
2026-04-28 14:09 52.50246 8.44723 1995 ft 154 kts 64°
2026-04-28 14:09 52.50712 8.46312 2001 ft 155 kts 64°
2026-04-28 14:09 52.51185 8.47908 1997 ft 154 kts 64°
2026-04-28 14:09 52.51650 8.49489 2011 ft 154 kts 65°
2026-04-28 14:10 52.52124 8.51087 1999 ft 158 kts 64°
2026-04-28 14:10 52.52600 8.52722 2006 ft 157 kts 64°
2026-04-28 14:10 52.53078 8.54333 1996 ft 155 kts 64°
2026-04-28 14:10 52.53388 8.55385 1997 ft 154 kts 64°
2026-04-28 14:11 52.54010 8.57512 2001 ft 157 kts 64°
2026-04-28 14:11 52.54491 8.59109 1996 ft 156 kts 64°
2026-04-28 14:11 52.54807 8.60172 1996 ft 154 kts 64°
2026-04-28 14:11 52.55286 8.61753 1996 ft 153 kts 64°
2026-04-28 14:12 52.55762 8.63330 1999 ft 154 kts 64°
2026-04-28 14:12 52.56231 8.64873 2096 ft 146 kts 65°
2026-04-28 14:12 52.56637 8.66281 2228 ft 129 kts 65°
2026-04-28 14:12 52.57024 8.67613 2297 ft 131 kts 66°
2026-04-28 14:13 52.57420 8.68967 2315 ft 131 kts 64°
2026-04-28 14:13 52.57829 8.70347 2311 ft 139 kts 64°
2026-04-28 14:13 52.58238 8.71803 2147 ft 137 kts 66°
2026-04-28 14:13 52.58629 8.73168 2017 ft 131 kts 64°
2026-04-28 14:14 52.59035 8.74520 1878 ft 133 kts 65°
2026-04-28 14:14 52.59436 8.75887 1807 ft 135 kts 65°
2026-04-28 14:14 52.59848 8.77252 1801 ft 133 kts 65°
2026-04-28 14:14 52.60168 8.78354 1800 ft 129 kts 66°
2026-04-28 14:15 52.60559 8.79693 1820 ft 133 kts 66°
2026-04-28 14:15 52.60957 8.81061 1819 ft 134 kts 65°
2026-04-28 14:15 52.61366 8.82452 1818 ft 133 kts 65°
2026-04-28 14:15 52.61773 8.83830 1822 ft 133 kts 65°
2026-04-28 14:16 52.62185 8.85221 1728 ft 137 kts 65°
2026-04-28 14:16 52.62599 8.86632 1602 ft 139 kts 64°
2026-04-28 14:16 52.63043 8.88053 1473 ft 141 kts 60°
2026-04-28 14:16 52.63557 8.89435 1318 ft 144 kts 58°
2026-04-28 14:17 52.64066 8.90803 1318 ft 138 kts 59°
2026-04-28 14:17 52.64550 8.92149 1302 ft 132 kts 61°
2026-04-28 14:17 52.65007 8.93438 1300 ft 131 kts 59°
2026-04-28 14:17 52.65439 8.94650 1303 ft 128 kts 60°
2026-04-28 14:18 52.65879 8.95902 1300 ft 126 kts 60°
2026-04-28 14:18 52.66329 8.97158 1301 ft 129 kts 60°
2026-04-28 14:18 52.66778 8.98423 1318 ft 128 kts 59°
2026-04-28 14:18 52.67225 8.99675 1300 ft 121 kts 60°
2026-04-28 14:19 52.67636 9.00831 1318 ft 117 kts 62°
2026-04-28 14:19 52.68049 9.01980 1305 ft 115 kts 60°
2026-04-28 14:19 52.68459 9.03118 1320 ft 117 kts 60°
2026-04-28 14:19 52.68883 9.04280 1308 ft 118 kts 59°
2026-04-28 14:20 52.69288 9.05389 1306 ft 107 kts 58°
2026-04-28 14:20 52.69655 9.06388 1306 ft 93 kts 58°
2026-04-28 14:20 52.69967 9.07203 1322 ft 78 kts 59°
2026-04-28 14:20 52.70112 9.07976 1334 ft 72 kts 83°
2026-04-28 14:21 52.70205 9.08764 1238 ft 68 kts 73°
2026-04-28 14:21 52.70265 9.09497 1247 ft 62 kts 80°
2026-04-28 14:21 52.70353 9.10175 1215 ft 59 kts 73°
2026-04-28 14:21 52.70437 9.10852 1090 ft 62 kts 75°
2026-04-28 14:22 52.70508 9.11570 962 ft 64 kts 79°
2026-04-28 14:22 52.70576 9.12282 903 ft 60 kts 78°
2026-04-28 14:22 52.70619 9.12950 789 ft 59 kts 88°
2026-04-28 14:22 52.70697 9.13624 591 ft 65 kts 56°
2026-04-28 14:23 52.70837 9.14316 424 ft 61 kts 80°
2026-04-28 14:23 52.70896 9.14991 290 ft 59 kts 80°
2026-04-28 14:23 52.70941 9.15669 134 ft 61 kts 85°
2026-04-28 14:23 52.70978 9.16271 91 ft 45 kts 86°
2026-04-28 14:24 52.70993 9.16594 80 ft 12 kts 84°
2026-04-28 14:24 52.71004 9.16724 77 ft 10 kts 75°
2026-04-28 14:24 52.71031 9.16808 76 ft 5 kts 69°
2026-04-28 14:24 52.71031 9.16810 76 ft 0 kts 78°